Location: Hope
(40.9110°N, 74.9680°W)
Time: 09:45:32
(UTC-05:00)

Tiangong 2 - Pass Details

Date: 26 January 2019
Orbit: 380 x 390 km, 42.8° (Epoch: 21 February)

Event Time Altitude Azimuth Distance (km) Brightness Sun altitude
Exits shadow 05:01:18 26° 98° (E) 797 3.3 -25.4°
Drops below altitude 10° 05:02:51 10° 101° (E) 1,407 4.9 -25.1°
Sets 05:04:55 0° 102° (ESE) 2,262 6.3 -24.7°
